Year,Month,Day,Hour,Minute,Value (Times are PST for temperature in C)
2014,08,11,00,00,15.80
2014,08,11,00,01,15.80
2014,08,11,00,02,15.80
2014,08,11,00,03,15.80
2014,08,11,00,04,15.70
2014,08,11,00,05,15.70
2014,08,11,00,06,15.60
2014,08,11,00,07,15.60
2014,08,11,00,08,15.50
2014,08,11,00,09,15.40
2014,08,11,00,10,15.40
2014,08,11,00,11,15.30
2014,08,11,00,12,15.30
2014,08,11,00,13,15.30
2014,08,11,00,14,15.30
2014,08,11,00,15,15.20
2014,08,11,00,16,15.10
2014,08,11,00,17,15.10
2014,08,11,00,18,15.00
2014,08,11,00,19,15.00
2014,08,11,00,20,15.00
2014,08,11,00,21,15.00
2014,08,11,00,22,15.00
2014,08,11,00,23,14.90
2014,08,11,00,24,14.90
2014,08,11,00,25,14.90
2014,08,11,00,26,14.90
2014,08,11,00,27,14.90
2014,08,11,00,28,15.00
2014,08,11,00,29,15.00
2014,08,11,00,30,15.00
2014,08,11,00,31,15.00
2014,08,11,00,32,15.00
2014,08,11,00,33,15.00
2014,08,11,00,34,15.00
2014,08,11,00,35,15.00
2014,08,11,00,36,15.00
2014,08,11,00,37,15.00
2014,08,11,00,38,15.00
2014,08,11,00,39,15.10
2014,08,11,00,40,15.10
2014,08,11,00,41,15.10
2014,08,11,00,42,15.20
2014,08,11,00,43,15.20
2014,08,11,00,44,15.30
2014,08,11,00,45,15.30
2014,08,11,00,46,15.30
2014,08,11,00,47,15.30
2014,08,11,00,48,15.30
2014,08,11,00,49,15.30
2014,08,11,00,50,15.30
2014,08,11,00,51,15.30
2014,08,11,00,52,15.30
2014,08,11,00,53,15.40
2014,08,11,00,54,15.50
2014,08,11,00,55,15.60
2014,08,11,00,56,15.70
2014,08,11,00,57,15.90
2014,08,11,00,58,16.00
2014,08,11,00,59,16.10
2014,08,11,01,00,16.20
2014,08,11,01,01,16.30
2014,08,11,01,02,16.30
2014,08,11,01,03,16.40
2014,08,11,01,04,16.40
2014,08,11,01,05,16.40
2014,08,11,01,06,16.50
2014,08,11,01,07,16.60
2014,08,11,01,08,16.60
2014,08,11,01,09,16.60
2014,08,11,01,10,16.60
2014,08,11,01,11,16.60
2014,08,11,01,12,16.60
2014,08,11,01,13,16.60
2014,08,11,01,14,16.60
2014,08,11,01,15,16.60
2014,08,11,01,16,16.50
2014,08,11,01,17,16.40
2014,08,11,01,18,16.40
2014,08,11,01,19,16.40
2014,08,11,01,20,16.30
2014,08,11,01,21,16.20
2014,08,11,01,22,16.10
2014,08,11,01,23,16.10
2014,08,11,01,24,16.00
2014,08,11,01,25,15.90
2014,08,11,01,26,15.80
2014,08,11,01,27,15.80
2014,08,11,01,28,15.70
2014,08,11,01,29,15.70
2014,08,11,01,30,15.70
2014,08,11,01,31,15.60
2014,08,11,01,32,15.60
2014,08,11,01,33,15.60
2014,08,11,01,34,15.60
2014,08,11,01,35,15.50
2014,08,11,01,36,15.50
2014,08,11,01,37,15.50
2014,08,11,01,38,15.50
2014,08,11,01,39,15.40
2014,08,11,01,40,15.40
2014,08,11,01,41,15.40
2014,08,11,01,42,15.30
2014,08,11,01,43,15.30
2014,08,11,01,44,15.30
2014,08,11,01,45,15.20
2014,08,11,01,46,15.20
2014,08,11,01,47,15.10
2014,08,11,01,48,15.00
2014,08,11,01,49,15.00
2014,08,11,01,50,14.90
2014,08,11,01,51,14.90
2014,08,11,01,52,14.80
2014,08,11,01,53,14.80
2014,08,11,01,54,14.80
2014,08,11,01,55,14.70
2014,08,11,01,56,14.70
2014,08,11,01,57,14.70
2014,08,11,01,58,14.60
2014,08,11,01,59,14.60
2014,08,11,02,00,14.60
2014,08,11,02,01,14.50
2014,08,11,02,02,14.50
2014,08,11,02,03,14.50
2014,08,11,02,04,14.40
2014,08,11,02,05,14.40
2014,08,11,02,06,14.40
2014,08,11,02,07,14.40
2014,08,11,02,08,14.30
2014,08,11,02,09,14.30
2014,08,11,02,10,14.30
2014,08,11,02,11,14.30
2014,08,11,02,12,14.20
2014,08,11,02,13,14.20
2014,08,11,02,14,14.20
2014,08,11,02,15,14.20
2014,08,11,02,16,14.20
2014,08,11,02,17,14.20
2014,08,11,02,18,14.20
2014,08,11,02,19,14.20
2014,08,11,02,20,14.20
2014,08,11,02,21,14.20
2014,08,11,02,22,14.20
2014,08,11,02,23,14.20
2014,08,11,02,24,14.20
2014,08,11,02,25,14.20
2014,08,11,02,26,14.20
2014,08,11,02,27,14.20
2014,08,11,02,28,14.20
2014,08,11,02,29,14.20
2014,08,11,02,30,14.20
2014,08,11,02,31,14.20
2014,08,11,02,32,14.20
2014,08,11,02,33,14.20
2014,08,11,02,34,14.20
2014,08,11,02,35,14.20
2014,08,11,02,36,14.20
2014,08,11,02,37,14.20
2014,08,11,02,38,14.20
2014,08,11,02,39,14.20
2014,08,11,02,40,14.20
2014,08,11,02,41,14.20
2014,08,11,02,42,14.20
2014,08,11,02,43,14.20
2014,08,11,02,44,14.20
2014,08,11,02,45,14.20
2014,08,11,02,46,14.20
2014,08,11,02,47,14.20
2014,08,11,02,48,14.20
2014,08,11,02,49,14.10
2014,08,11,02,50,14.10
2014,08,11,02,51,14.10
2014,08,11,02,52,14.10
2014,08,11,02,53,14.10
2014,08,11,02,54,14.00
2014,08,11,02,55,14.00
2014,08,11,02,56,14.00
2014,08,11,02,57,14.00
2014,08,11,02,58,14.00
2014,08,11,02,59,14.00
2014,08,11,03,00,14.00
2014,08,11,03,01,14.00
2014,08,11,03,02,14.00
2014,08,11,03,03,14.00
2014,08,11,03,04,14.00
2014,08,11,03,05,14.00
2014,08,11,03,06,14.10
2014,08,11,03,07,14.10
2014,08,11,03,08,14.20
2014,08,11,03,09,14.20
2014,08,11,03,10,14.20
2014,08,11,03,11,14.20
2014,08,11,03,12,14.20
2014,08,11,03,13,14.30
2014,08,11,03,14,14.30
2014,08,11,03,15,14.30
2014,08,11,03,16,14.30
2014,08,11,03,17,14.30
2014,08,11,03,18,14.30
2014,08,11,03,19,14.30
2014,08,11,03,20,14.30
2014,08,11,03,21,14.30
2014,08,11,03,22,14.30
2014,08,11,03,23,14.30
2014,08,11,03,24,14.40
2014,08,11,03,25,14.50
2014,08,11,03,26,14.50
2014,08,11,03,27,14.50
2014,08,11,03,28,14.50
2014,08,11,03,29,14.50
2014,08,11,03,30,14.50
2014,08,11,03,31,14.50
2014,08,11,03,32,14.60
2014,08,11,03,33,14.60
2014,08,11,03,34,14.50
2014,08,11,03,35,14.50
2014,08,11,03,36,14.50
2014,08,11,03,37,14.50
2014,08,11,03,38,14.50
2014,08,11,03,39,14.40
2014,08,11,03,40,14.40
2014,08,11,03,41,14.40
2014,08,11,03,42,14.30
2014,08,11,03,43,14.30
2014,08,11,03,44,14.30
2014,08,11,03,45,14.30
2014,08,11,03,46,14.30
2014,08,11,03,47,14.20
2014,08,11,03,48,14.20
2014,08,11,03,49,14.20
2014,08,11,03,50,14.20
2014,08,11,03,51,14.20
2014,08,11,03,52,14.20
2014,08,11,03,53,14.20
2014,08,11,03,54,14.20
2014,08,11,03,55,14.20
2014,08,11,03,56,14.20
2014,08,11,03,57,14.20
2014,08,11,03,58,14.20
2014,08,11,03,59,14.20
2014,08,11,04,00,14.20
2014,08,11,04,01,14.20
2014,08,11,04,02,14.20
2014,08,11,04,03,14.20
2014,08,11,04,04,14.20
2014,08,11,04,05,14.20
2014,08,11,04,06,14.20
2014,08,11,04,07,14.20
2014,08,11,04,08,14.20
2014,08,11,04,09,14.20
2014,08,11,04,10,14.20
2014,08,11,04,11,14.20
2014,08,11,04,12,14.20
2014,08,11,04,13,14.20
2014,08,11,04,14,14.20
2014,08,11,04,15,14.20
2014,08,11,04,16,14.20
2014,08,11,04,17,14.20
2014,08,11,04,18,14.20
2014,08,11,04,19,14.10
2014,08,11,04,20,14.10
2014,08,11,04,21,14.10
2014,08,11,04,22,14.10
2014,08,11,04,23,14.10
2014,08,11,04,24,14.10
2014,08,11,04,25,14.10
2014,08,11,04,26,14.20
2014,08,11,04,27,14.20
2014,08,11,04,28,14.20
2014,08,11,04,29,14.20
2014,08,11,04,30,14.20
2014,08,11,04,31,14.20
2014,08,11,04,32,14.20
2014,08,11,04,33,14.20
2014,08,11,04,34,14.20
2014,08,11,04,35,14.20
2014,08,11,04,36,14.20
2014,08,11,04,37,14.20
2014,08,11,04,38,14.20
2014,08,11,04,39,14.20
2014,08,11,04,40,14.20
2014,08,11,04,41,14.20
2014,08,11,04,42,14.20
2014,08,11,04,43,14.20
2014,08,11,04,44,14.20
2014,08,11,04,45,14.20
2014,08,11,04,46,14.20
2014,08,11,04,47,14.20
2014,08,11,04,48,14.20
2014,08,11,04,49,14.20
2014,08,11,04,50,14.20
2014,08,11,04,51,14.20
2014,08,11,04,52,14.20
2014,08,11,04,53,14.20
2014,08,11,04,54,14.20
2014,08,11,04,55,14.20
2014,08,11,04,56,14.20
2014,08,11,04,57,14.20
2014,08,11,04,58,14.20
2014,08,11,04,59,14.20
2014,08,11,05,00,14.10
2014,08,11,05,01,14.10
2014,08,11,05,02,14.10
2014,08,11,05,03,14.10
2014,08,11,05,04,14.10
2014,08,11,05,05,14.10
2014,08,11,05,06,14.10
2014,08,11,05,07,14.10
2014,08,11,05,08,14.00
2014,08,11,05,09,14.00
2014,08,11,05,10,14.00
2014,08,11,05,11,14.00
2014,08,11,05,12,14.00
2014,08,11,05,13,14.00
2014,08,11,05,14,14.00
2014,08,11,05,15,14.00
2014,08,11,05,16,14.00
2014,08,11,05,17,14.00
2014,08,11,05,18,14.00
2014,08,11,05,19,14.00
2014,08,11,05,20,14.00
2014,08,11,05,21,14.00
2014,08,11,05,22,14.00
2014,08,11,05,23,14.00
2014,08,11,05,24,13.90
2014,08,11,05,25,13.90
2014,08,11,05,26,13.80
2014,08,11,05,27,13.80
2014,08,11,05,28,13.80
2014,08,11,05,29,13.80
2014,08,11,05,30,13.80
2014,08,11,05,31,13.80
2014,08,11,05,32,13.80
2014,08,11,05,33,13.80
2014,08,11,05,34,13.80
2014,08,11,05,35,13.80
2014,08,11,05,36,13.80
2014,08,11,05,37,13.80
2014,08,11,05,38,13.80
2014,08,11,05,39,13.80
2014,08,11,05,40,13.70
2014,08,11,05,41,13.80
2014,08,11,05,42,13.80
2014,08,11,05,43,13.80
2014,08,11,05,44,13.80
2014,08,11,05,45,13.80
2014,08,11,05,46,13.80
2014,08,11,05,47,13.80
2014,08,11,05,48,13.80
2014,08,11,05,49,13.80
2014,08,11,05,50,13.80
2014,08,11,05,51,13.80
2014,08,11,05,52,13.80
2014,08,11,05,53,13.80
2014,08,11,05,54,13.90
2014,08,11,05,55,13.90
2014,08,11,05,56,13.90
2014,08,11,05,57,13.90
2014,08,11,05,58,14.00
2014,08,11,05,59,14.00
2014,08,11,06,00,14.00
2014,08,11,06,01,14.00
2014,08,11,06,02,14.00
2014,08,11,06,03,14.00
2014,08,11,06,04,14.00
2014,08,11,06,05,14.00
2014,08,11,06,06,14.00
2014,08,11,06,07,14.00
2014,08,11,06,08,14.00
2014,08,11,06,09,14.00
2014,08,11,06,10,14.10
2014,08,11,06,11,14.10
2014,08,11,06,12,14.10
2014,08,11,06,13,14.00
2014,08,11,06,14,14.00
2014,08,11,06,15,14.00
2014,08,11,06,16,14.00
2014,08,11,06,17,14.00
2014,08,11,06,18,14.00
2014,08,11,06,19,14.00
2014,08,11,06,20,14.00
2014,08,11,06,21,14.00
2014,08,11,06,22,14.00
2014,08,11,06,23,14.00
2014,08,11,06,24,14.00
2014,08,11,06,25,14.00
2014,08,11,06,26,14.00
2014,08,11,06,27,13.90
2014,08,11,06,28,13.90
2014,08,11,06,29,13.90
2014,08,11,06,30,13.90
2014,08,11,06,31,13.90
2014,08,11,06,32,13.90
2014,08,11,06,33,13.90
2014,08,11,06,34,13.90
2014,08,11,06,35,13.90
2014,08,11,06,36,13.90
2014,08,11,06,37,13.90
2014,08,11,06,38,13.90
2014,08,11,06,39,13.90
2014,08,11,06,40,13.90
2014,08,11,06,41,13.90
2014,08,11,06,42,13.90
2014,08,11,06,43,13.90
2014,08,11,06,44,13.90
2014,08,11,06,45,14.00
2014,08,11,06,46,14.00
2014,08,11,06,47,14.00
2014,08,11,06,48,14.10
2014,08,11,06,49,14.10
2014,08,11,06,50,14.10
2014,08,11,06,51,14.20
2014,08,11,06,52,14.20
2014,08,11,06,53,14.20
2014,08,11,06,54,14.30
2014,08,11,06,55,14.40
2014,08,11,06,56,14.40
2014,08,11,06,57,14.50
2014,08,11,06,58,14.50
2014,08,11,06,59,14.60
2014,08,11,07,00,14.60
2014,08,11,07,01,14.60
2014,08,11,07,02,14.60
2014,08,11,07,03,14.70
2014,08,11,07,04,14.70
2014,08,11,07,05,14.70
2014,08,11,07,06,14.70
2014,08,11,07,07,14.80
2014,08,11,07,08,14.80
2014,08,11,07,09,14.80
2014,08,11,07,10,14.80
2014,08,11,07,11,14.80
2014,08,11,07,12,14.90
2014,08,11,07,13,14.90
2014,08,11,07,14,14.90
2014,08,11,07,15,14.90
2014,08,11,07,16,15.00
2014,08,11,07,17,15.00
2014,08,11,07,18,15.00
2014,08,11,07,19,15.10
2014,08,11,07,20,15.10
2014,08,11,07,21,15.10
2014,08,11,07,22,15.20
2014,08,11,07,23,15.20
2014,08,11,07,24,15.30
2014,08,11,07,25,15.30
2014,08,11,07,26,15.40
2014,08,11,07,27,15.50
2014,08,11,07,28,15.60
2014,08,11,07,29,15.70
2014,08,11,07,30,15.80
2014,08,11,07,31,15.90
2014,08,11,07,32,16.00
2014,08,11,07,33,16.10
2014,08,11,07,34,16.20
2014,08,11,07,35,16.30
2014,08,11,07,36,16.30
2014,08,11,07,37,16.40
2014,08,11,07,38,16.40
2014,08,11,07,39,16.40
2014,08,11,07,40,16.40
2014,08,11,07,41,16.40
2014,08,11,07,42,16.50
2014,08,11,07,43,16.60
2014,08,11,07,44,16.60
2014,08,11,07,45,16.70
2014,08,11,07,46,16.80
2014,08,11,07,47,16.90
2014,08,11,07,48,16.90
2014,08,11,07,49,17.00
2014,08,11,07,50,17.00
2014,08,11,07,51,17.10
2014,08,11,07,52,17.20
2014,08,11,07,53,17.20
2014,08,11,07,54,17.30
2014,08,11,07,55,17.30
2014,08,11,07,56,17.30
2014,08,11,07,57,17.40
2014,08,11,07,58,17.50
2014,08,11,07,59,17.50
2014,08,11,08,00,17.60
2014,08,11,08,01,17.70
2014,08,11,08,02,17.70
2014,08,11,08,03,17.70
2014,08,11,08,04,17.80
2014,08,11,08,05,17.80
2014,08,11,08,06,17.90
2014,08,11,08,07,17.90
2014,08,11,08,08,17.90
2014,08,11,08,09,17.90
2014,08,11,08,10,18.00
2014,08,11,08,11,18.10
2014,08,11,08,12,18.10
2014,08,11,08,13,18.20
2014,08,11,08,14,18.20
2014,08,11,08,15,18.40
2014,08,11,08,16,18.50
2014,08,11,08,17,18.60
2014,08,11,08,18,18.70
2014,08,11,08,19,18.70
2014,08,11,08,20,18.70
2014,08,11,08,21,18.80
2014,08,11,08,22,18.80
2014,08,11,08,23,18.90
2014,08,11,08,24,18.90
2014,08,11,08,25,18.90
2014,08,11,08,26,18.90
2014,08,11,08,27,19.00
2014,08,11,08,28,19.10
2014,08,11,08,29,19.10
2014,08,11,08,30,19.10
2014,08,11,08,31,19.20
2014,08,11,08,32,19.30
2014,08,11,08,33,19.30
2014,08,11,08,34,19.40
2014,08,11,08,35,19.50
2014,08,11,08,36,19.60
2014,08,11,08,37,19.70
2014,08,11,08,38,19.70
2014,08,11,08,39,19.80
2014,08,11,08,40,19.90
2014,08,11,08,41,19.90
2014,08,11,08,42,19.90
2014,08,11,08,43,19.90
2014,08,11,08,44,20.00
2014,08,11,08,45,20.10
2014,08,11,08,46,20.10
2014,08,11,08,47,19.90
2014,08,11,08,48,19.80
2014,08,11,08,49,19.70
2014,08,11,08,50,19.50
2014,08,11,08,51,19.40
2014,08,11,08,52,19.30
2014,08,11,08,53,19.20
2014,08,11,08,54,19.10
2014,08,11,08,55,19.10
2014,08,11,08,56,19.10
2014,08,11,08,57,19.00
2014,08,11,08,58,18.90
2014,08,11,08,59,18.90
2014,08,11,09,00,18.80
2014,08,11,09,01,18.70
2014,08,11,09,02,18.70
2014,08,11,09,03,18.60
2014,08,11,09,04,18.60
2014,08,11,09,05,18.60
2014,08,11,09,06,18.60
2014,08,11,09,07,18.50
2014,08,11,09,08,18.50
2014,08,11,09,09,18.40
2014,08,11,09,10,18.40
2014,08,11,09,11,18.40
2014,08,11,09,12,18.40
2014,08,11,09,13,18.30
2014,08,11,09,14,18.30
2014,08,11,09,15,18.30
2014,08,11,09,16,18.40
2014,08,11,09,17,18.50
2014,08,11,09,18,18.50
2014,08,11,09,19,18.60
2014,08,11,09,20,18.70
2014,08,11,09,21,18.80
2014,08,11,09,22,18.90
2014,08,11,09,23,19.00
2014,08,11,09,24,19.10
2014,08,11,09,25,19.30
2014,08,11,09,26,19.60
2014,08,11,09,27,19.90
2014,08,11,09,28,20.10
2014,08,11,09,29,20.30
2014,08,11,09,30,20.50
2014,08,11,09,31,20.70
2014,08,11,09,32,20.90
2014,08,11,09,33,21.10
2014,08,11,09,34,21.30
2014,08,11,09,35,21.50
2014,08,11,09,36,21.70
2014,08,11,09,37,21.80
2014,08,11,09,38,22.00
2014,08,11,09,39,22.20
2014,08,11,09,40,22.30
2014,08,11,09,41,22.40
2014,08,11,09,42,22.50
2014,08,11,09,43,22.60
2014,08,11,09,44,22.70
2014,08,11,09,45,22.80
2014,08,11,09,46,22.80
2014,08,11,09,47,22.90
2014,08,11,09,48,22.90
2014,08,11,09,49,22.90
2014,08,11,09,50,22.90
2014,08,11,09,51,22.90
2014,08,11,09,52,22.90
2014,08,11,09,53,23.00
2014,08,11,09,54,23.10
2014,08,11,09,55,23.10
2014,08,11,09,56,23.20
2014,08,11,09,57,23.20
2014,08,11,09,58,23.30
2014,08,11,09,59,23.30
2014,08,11,10,00,23.40
2014,08,11,10,01,23.40
2014,08,11,10,02,23.40
2014,08,11,10,03,23.50
2014,08,11,10,04,23.60
2014,08,11,10,05,23.60
2014,08,11,10,06,23.70
2014,08,11,10,07,23.70
2014,08,11,10,08,23.70
2014,08,11,10,09,23.80
2014,08,11,10,10,23.90
2014,08,11,10,11,23.90
2014,08,11,10,12,24.10
2014,08,11,10,13,24.10
2014,08,11,10,14,24.10
2014,08,11,10,15,24.10
2014,08,11,10,16,24.10
2014,08,11,10,17,24.10
2014,08,11,10,18,24.10
2014,08,11,10,19,24.10
2014,08,11,10,20,24.10
2014,08,11,10,21,24.20
2014,08,11,10,22,24.20
2014,08,11,10,23,24.20
2014,08,11,10,24,24.20
2014,08,11,10,25,24.20
2014,08,11,10,26,24.20
2014,08,11,10,27,24.20
2014,08,11,10,28,24.20
2014,08,11,10,29,24.20
2014,08,11,10,30,24.30
2014,08,11,10,31,24.30
2014,08,11,10,32,24.40
2014,08,11,10,33,24.40
2014,08,11,10,34,24.50
2014,08,11,10,35,24.50
2014,08,11,10,36,24.60
2014,08,11,10,37,24.70
2014,08,11,10,38,24.70
2014,08,11,10,39,24.80
2014,08,11,10,40,24.80
2014,08,11,10,41,24.70
2014,08,11,10,42,24.70
2014,08,11,10,43,24.70
2014,08,11,10,44,24.60
2014,08,11,10,45,24.60
2014,08,11,10,46,24.50
2014,08,11,10,47,24.50
2014,08,11,10,48,24.50
2014,08,11,10,49,24.50
2014,08,11,10,50,24.50
2014,08,11,10,51,24.50
2014,08,11,10,52,24.50
2014,08,11,10,53,24.60
2014,08,11,10,54,24.60
2014,08,11,10,55,24.60
2014,08,11,10,56,24.70
2014,08,11,10,57,24.80
2014,08,11,10,58,24.80
2014,08,11,10,59,24.90
2014,08,11,11,00,25.00
2014,08,11,11,01,25.00
2014,08,11,11,02,25.10
2014,08,11,11,03,25.10
2014,08,11,11,04,25.20
2014,08,11,11,05,25.20
2014,08,11,11,06,25.20
2014,08,11,11,07,25.30
2014,08,11,11,08,25.40
2014,08,11,11,09,25.40
2014,08,11,11,10,25.50
2014,08,11,11,11,25.70
2014,08,11,11,12,25.80
2014,08,11,11,13,25.90
2014,08,11,11,14,26.00
2014,08,11,11,15,26.00
2014,08,11,11,16,26.00
2014,08,11,11,17,26.00
2014,08,11,11,18,26.00
2014,08,11,11,19,25.90
2014,08,11,11,20,25.90
2014,08,11,11,21,25.90
2014,08,11,11,22,26.00
2014,08,11,11,23,26.00
2014,08,11,11,24,26.00
2014,08,11,11,25,26.20
2014,08,11,11,26,26.30
2014,08,11,11,27,26.30
2014,08,11,11,28,26.30
2014,08,11,11,29,26.30
2014,08,11,11,30,26.30
2014,08,11,11,31,26.30
2014,08,11,11,32,26.30
2014,08,11,11,33,26.30
2014,08,11,11,34,26.40
2014,08,11,11,35,26.40
2014,08,11,11,36,26.60
2014,08,11,11,37,26.60
2014,08,11,11,38,26.70
2014,08,11,11,39,26.70
2014,08,11,11,40,26.80
2014,08,11,11,41,26.80
2014,08,11,11,42,26.80
2014,08,11,11,43,26.80
2014,08,11,11,44,26.80
2014,08,11,11,45,26.70
2014,08,11,11,46,26.70
2014,08,11,11,47,26.70
2014,08,11,11,48,26.70
2014,08,11,11,49,26.80
2014,08,11,11,50,26.80
2014,08,11,11,51,26.80
2014,08,11,11,52,26.80
2014,08,11,11,53,26.80
2014,08,11,11,54,26.80
2014,08,11,11,55,26.90
2014,08,11,11,56,27.00
2014,08,11,11,57,27.10
2014,08,11,11,58,27.20
2014,08,11,11,59,27.20
2014,08,11,12,00,27.20
2014,08,11,12,01,27.20
2014,08,11,12,02,27.10
2014,08,11,12,03,27.10
2014,08,11,12,04,27.10
2014,08,11,12,05,27.10
2014,08,11,12,06,27.10
2014,08,11,12,07,27.20
2014,08,11,12,08,27.20
2014,08,11,12,09,27.30
2014,08,11,12,10,27.30
2014,08,11,12,11,27.30
2014,08,11,12,12,27.30
2014,08,11,12,13,27.30
2014,08,11,12,14,27.20
2014,08,11,12,15,27.20
2014,08,11,12,16,27.20
2014,08,11,12,17,27.20
2014,08,11,12,18,27.20
2014,08,11,12,19,27.30
2014,08,11,12,20,27.30
2014,08,11,12,21,27.30
2014,08,11,12,22,27.30
2014,08,11,12,23,27.30
2014,08,11,12,24,27.30
2014,08,11,12,25,27.30
2014,08,11,12,26,27.30
2014,08,11,12,27,27.30
2014,08,11,12,28,27.30
2014,08,11,12,29,27.30
2014,08,11,12,30,27.30
2014,08,11,12,31,27.30
2014,08,11,12,32,27.30
2014,08,11,12,33,27.30
2014,08,11,12,34,27.30
2014,08,11,12,35,27.40
2014,08,11,12,36,27.50
2014,08,11,12,37,27.60
2014,08,11,12,38,27.60
2014,08,11,12,39,27.70
2014,08,11,12,40,27.70
2014,08,11,12,41,27.70
2014,08,11,12,42,27.80
2014,08,11,12,43,28.00
2014,08,11,12,44,28.00
2014,08,11,12,45,28.10
2014,08,11,12,46,28.10
2014,08,11,12,47,28.10
2014,08,11,12,48,28.10
2014,08,11,12,49,28.10
2014,08,11,12,50,28.20
2014,08,11,12,51,28.20
2014,08,11,12,52,28.30
2014,08,11,12,53,28.40
2014,08,11,12,54,28.50
2014,08,11,12,55,28.60
2014,08,11,12,56,28.70
2014,08,11,12,57,28.90
2014,08,11,12,58,28.90
2014,08,11,12,59,29.00
2014,08,11,13,00,29.10
2014,08,11,13,01,29.20
2014,08,11,13,02,29.30
2014,08,11,13,03,29.20
2014,08,11,13,04,29.20
2014,08,11,13,05,29.00
2014,08,11,13,06,28.90
2014,08,11,13,07,28.90
2014,08,11,13,08,28.70
2014,08,11,13,09,28.50
2014,08,11,13,10,28.20
2014,08,11,13,11,27.90
2014,08,11,13,12,27.70
2014,08,11,13,13,27.50
2014,08,11,13,14,27.30
2014,08,11,13,15,27.30
2014,08,11,13,16,27.30
2014,08,11,13,17,27.30
2014,08,11,13,18,27.30
2014,08,11,13,19,27.40
2014,08,11,13,20,27.70
2014,08,11,13,21,28.00
2014,08,11,13,22,28.30
2014,08,11,13,23,28.50
2014,08,11,13,24,28.70
2014,08,11,13,25,28.90
2014,08,11,13,26,29.00
2014,08,11,13,27,29.10
2014,08,11,13,28,29.10
2014,08,11,13,29,29.20
2014,08,11,13,30,29.20
2014,08,11,13,31,29.30
2014,08,11,13,32,29.40
2014,08,11,13,33,29.50
2014,08,11,13,34,29.60
2014,08,11,13,35,29.60
2014,08,11,13,36,29.60
2014,08,11,13,37,29.30
2014,08,11,13,38,28.90
2014,08,11,13,39,28.50
2014,08,11,13,40,28.10
2014,08,11,13,41,27.80
2014,08,11,13,42,27.60
2014,08,11,13,43,27.40
2014,08,11,13,44,27.30
2014,08,11,13,45,27.10
2014,08,11,13,46,26.80
2014,08,11,13,47,26.40
2014,08,11,13,48,25.80
2014,08,11,13,49,25.40
2014,08,11,13,50,25.00
2014,08,11,13,51,24.60
2014,08,11,13,52,24.30
2014,08,11,13,53,24.10
2014,08,11,13,54,23.70
2014,08,11,13,55,23.50
2014,08,11,13,56,23.30
2014,08,11,13,57,23.10
2014,08,11,13,58,22.80
2014,08,11,13,59,22.50
2014,08,11,14,00,22.00
2014,08,11,14,01,21.50
2014,08,11,14,02,21.10
2014,08,11,14,03,20.80
2014,08,11,14,04,20.60
2014,08,11,14,05,20.50
2014,08,11,14,06,20.20
2014,08,11,14,07,20.00
2014,08,11,14,08,19.80
2014,08,11,14,09,19.60
2014,08,11,14,10,19.40
2014,08,11,14,11,19.20
2014,08,11,14,12,19.00
2014,08,11,14,13,18.90
2014,08,11,14,14,18.90
2014,08,11,14,15,18.90
2014,08,11,14,16,18.90
2014,08,11,14,17,18.90
2014,08,11,14,18,18.80
2014,08,11,14,19,18.80
2014,08,11,14,20,18.80
2014,08,11,14,21,18.80
2014,08,11,14,22,18.80
2014,08,11,14,23,18.70
2014,08,11,14,24,18.60
2014,08,11,14,25,18.60
2014,08,11,14,26,18.50
2014,08,11,14,27,18.50
2014,08,11,14,28,18.50
2014,08,11,14,29,18.50
2014,08,11,14,30,18.40
2014,08,11,14,31,18.40
2014,08,11,14,32,18.40
2014,08,11,14,33,18.40
2014,08,11,14,34,18.40
2014,08,11,14,35,18.40
2014,08,11,14,36,18.40
2014,08,11,14,37,18.50
2014,08,11,14,38,18.50
2014,08,11,14,39,18.60
2014,08,11,14,40,18.60
2014,08,11,14,41,18.60
2014,08,11,14,42,18.70
2014,08,11,14,43,18.70
2014,08,11,14,44,18.80
2014,08,11,14,45,18.80
2014,08,11,14,46,18.90
2014,08,11,14,47,18.90
2014,08,11,14,48,18.90
2014,08,11,14,49,18.90
2014,08,11,14,50,18.90
2014,08,11,14,51,18.90
2014,08,11,14,52,18.90
2014,08,11,14,53,19.00
2014,08,11,14,54,19.10
2014,08,11,14,55,19.30
2014,08,11,14,56,19.40
2014,08,11,14,57,19.40
2014,08,11,14,58,19.50
2014,08,11,14,59,19.60
2014,08,11,15,00,19.70
2014,08,11,15,01,19.80
2014,08,11,15,02,19.90
2014,08,11,15,03,20.00
2014,08,11,15,04,20.10
2014,08,11,15,05,20.20
2014,08,11,15,06,20.20
2014,08,11,15,07,20.30
2014,08,11,15,08,20.50
2014,08,11,15,09,20.60
2014,08,11,15,10,20.70
2014,08,11,15,11,20.80
2014,08,11,15,12,21.00
2014,08,11,15,13,21.10
2014,08,11,15,14,21.30
2014,08,11,15,15,21.40
2014,08,11,15,16,21.40
2014,08,11,15,17,21.60
2014,08,11,15,18,21.60
2014,08,11,15,19,21.50
2014,08,11,15,20,21.40
2014,08,11,15,21,21.30
2014,08,11,15,22,21.10
2014,08,11,15,23,21.00
2014,08,11,15,24,20.90
2014,08,11,15,25,20.90
2014,08,11,15,26,20.80
2014,08,11,15,27,20.80
2014,08,11,15,28,20.80
2014,08,11,15,29,20.80
2014,08,11,15,30,20.80
2014,08,11,15,31,20.80
2014,08,11,15,32,20.80
2014,08,11,15,33,20.80
2014,08,11,15,34,20.90
2014,08,11,15,35,20.90
2014,08,11,15,36,20.90
2014,08,11,15,37,20.90
2014,08,11,15,38,20.90
2014,08,11,15,39,21.00
2014,08,11,15,40,21.00
2014,08,11,15,41,21.00
2014,08,11,15,42,21.00
2014,08,11,15,43,21.10
2014,08,11,15,44,21.20
2014,08,11,15,45,21.20
2014,08,11,15,46,21.30
2014,08,11,15,47,21.30
2014,08,11,15,48,21.30
2014,08,11,15,49,21.30
2014,08,11,15,50,21.30
2014,08,11,15,51,21.30
2014,08,11,15,52,21.20
2014,08,11,15,53,21.20
2014,08,11,15,54,21.10
2014,08,11,15,55,21.10
2014,08,11,15,56,21.00
2014,08,11,15,57,21.00
2014,08,11,15,58,20.90
2014,08,11,15,59,20.80
2014,08,11,16,00,20.80
2014,08,11,16,01,20.80
2014,08,11,16,02,20.80
2014,08,11,16,03,20.80
2014,08,11,16,04,20.70
2014,08,11,16,05,20.70
2014,08,11,16,06,20.60
2014,08,11,16,07,20.70
2014,08,11,16,08,20.70
2014,08,11,16,09,20.80
2014,08,11,16,10,20.80
2014,08,11,16,11,20.90
2014,08,11,16,12,21.00
2014,08,11,16,13,21.10
2014,08,11,16,14,21.30
2014,08,11,16,15,21.40
2014,08,11,16,16,21.60
2014,08,11,16,17,21.70
2014,08,11,16,18,21.80
2014,08,11,16,19,22.00
2014,08,11,16,20,22.20
2014,08,11,16,21,22.30
2014,08,11,16,22,22.50
2014,08,11,16,23,22.60
2014,08,11,16,24,22.70
2014,08,11,16,25,22.70
2014,08,11,16,26,22.80
2014,08,11,16,27,22.80
2014,08,11,16,28,22.80
2014,08,11,16,29,22.90
2014,08,11,16,30,22.90
2014,08,11,16,31,23.00
2014,08,11,16,32,23.10
2014,08,11,16,33,23.20
2014,08,11,16,34,23.30
2014,08,11,16,35,23.30
2014,08,11,16,36,23.40
2014,08,11,16,37,23.40
2014,08,11,16,38,23.40
2014,08,11,16,39,23.30
2014,08,11,16,40,23.30
2014,08,11,16,41,23.20
2014,08,11,16,42,23.20
2014,08,11,16,43,23.10
2014,08,11,16,44,23.10
2014,08,11,16,45,23.20
2014,08,11,16,46,23.10
2014,08,11,16,47,23.10
2014,08,11,16,48,23.20
2014,08,11,16,49,23.20
2014,08,11,16,50,23.10
2014,08,11,16,51,23.10
2014,08,11,16,52,22.90
2014,08,11,16,53,22.90
2014,08,11,16,54,22.80
2014,08,11,16,55,22.70
2014,08,11,16,56,22.70
2014,08,11,16,57,22.70
2014,08,11,16,58,22.70
2014,08,11,16,59,22.80
2014,08,11,17,00,22.80
2014,08,11,17,01,22.80
2014,08,11,17,02,22.90
2014,08,11,17,03,22.90
2014,08,11,17,04,22.90
2014,08,11,17,05,22.90
2014,08,11,17,06,22.90
2014,08,11,17,07,22.90
2014,08,11,17,08,22.90
2014,08,11,17,09,22.90
2014,08,11,17,10,22.90
2014,08,11,17,11,23.00
2014,08,11,17,12,23.10
2014,08,11,17,13,23.10
2014,08,11,17,14,23.10
2014,08,11,17,15,23.20
2014,08,11,17,16,23.20
2014,08,11,17,17,23.20
2014,08,11,17,18,23.30
2014,08,11,17,19,23.30